Home > Weather > Canberra > Past weeks

Flag for Australia Weather for the Past 2 Weeks in Canberra, Australian Capital Territory, Australia

Now
63 °F

Overcast.


Feels Like: 63 °F
Forecast: 59 / 81 °F
Wind: 7 mph from East

Location: Canberra Airport

Current Time: Feb 9, 2016 at 4:03:00 AM

Latest Report: Feb 9, 2016 at 3:00 AM


Visibility: N/A

Pressure: 30.15 "Hg (28.17 "Hg at 577m altitude)

Humidity: 88%

Dew point: 59 °F

Location of CanberraLocation

Historic Weather in Canberra — Graph

°F

Canberra Temperature Yesterday

Maximum temperature yesterday: 88 °F (at 3:00 PM)
Minimum temperature yesterday: 54 °F (at 6:00 AM)
Average temperature yesterday: 70 °F

High & Low Weather Summary for the Past Weeks

 TemperatureHumidityPressure
High88 °F (Feb 8, 3:00 PM)100% (Jan 26, 5:00 AM)30.18 "Hg (Jan 26, 5:00 AM)
Low50 °F (Feb 2, 5:30 AM)24% (Feb 8, 1:30 PM)29.56 "Hg (Jan 29, 5:30 PM)
Average66 °F74%29.89 "Hg
* Reported Jan 25 3:00 AM — Feb 9 3:00 AM, Canberra, Weather by CustomWeather, © 2016

Note: Actual official high and low records may vary slightly from our data, if they occured in-between our weather recording intervals... More about our weather records

Advertising

Canberra Weather History for the Previous 24 Hours

 ConditionsComfort  
Time TempWeatherWind HumidityBarometerVisibility
3:00 AM
Tue, Feb 9
63 °FOvercast.7 mph88%30.15 "HgN/A
2:30 AM63 °FOvercast.8 mph88%30.15 "HgN/A
2:00 AM61 °FClear.3 mph88%30.15 "HgN/A
1:30 AM63 °FClear.No wind83%30.15 "HgN/A
1:00 AM63 °FClear.1 mph83%30.15 "HgN/A
12:30 AM64 °FClear.6 mph78%30.15 "HgN/A
12:00 AM64 °FClear.5 mph78%30.18 "HgN/A
11:30 PM
Mon, Feb 8
64 °FClear.7 mph73%30.18 "HgN/A
11:00 PM66 °FClear.6 mph68%30.15 "HgN/A
10:30 PM68 °FPassing clouds.5 mph64%30.15 "HgN/A
10:00 PM68 °FPassing clouds.6 mph64%30.15 "HgN/A
9:30 PM70 °FPassing clouds.8 mph64%30.15 "HgN/A
9:00 PM70 °FClear.6 mph60%30.12 "HgN/A
8:30 PM72 °FClear.9 mph53%30.12 "Hg10 mi
8:00 PM73 °FSunny.13 mph50%30.09 "Hg10 mi
7:30 PM77 °FSunny.17 mph44%30.09 "Hg10 mi
7:00 PM81 °FSunny.15 mph42%30.07 "Hg10 mi
6:30 PM82 °FSunny.15 mph40%30.07 "Hg10 mi
6:00 PM84 °FSunny.15 mph35%30.07 "Hg10 mi
5:30 PM84 °FPassing clouds.13 mph33%30.07 "HgN/A
5:00 PM86 °FSunny.13 mph29%30.07 "Hg10 mi
4:00 PM86 °FSunny.8 mph29%30.07 "Hg10 mi
3:00 PM88 °FPassing clouds.7 mph25%30.07 "HgN/A
2:00 PM86 °FPassing clouds.7 mph27%30.09 "HgN/A
1:30 PM86 °FPassing clouds.8 mph24%30.09 "HgN/A
1:00 PM84 °FPassing clouds.8 mph33%30.09 "HgN/A
12:00 PM82 °FPassing clouds.8 mph28%30.12 "HgN/A
11:30 AM81 °FPassing clouds.7 mph32%30.12 "HgN/A
11:00 AM79 °FPassing clouds.6 mph45%30.15 "HgN/A
10:30 AM75 °FSunny.6 mph57%30.15 "Hg10 mi
10:00 AM72 °FPassing clouds.5 mph57%30.15 "HgN/A
9:30 AM70 °FPassing clouds.5 mph60%30.15 "HgN/A
9:00 AM66 °FSunny.5 mph68%30.15 "Hg10 mi
8:30 AM63 °FPassing clouds.5 mph73%30.15 "HgN/A
8:00 AM61 °FSunny.5 mph83%30.15 "Hg10 mi
7:30 AM57 °FSunny.No wind94%30.15 "Hg10 mi
7:00 AM55 °FLight fog.No wind94%30.15 "HgN/A
6:30 AM54 °FLight fog.2 mph100%30.12 "HgN/A
6:00 AM54 °FClear.No wind94%30.12 "Hg10 mi
5:30 AM55 °FClear.2 mph100%30.12 "Hg10 mi
5:00 AM55 °FClear.1 mph100%30.12 "Hg10 mi
4:30 AM57 °FClear.No wind94%30.12 "Hg10 mi
4:00 AM57 °FClear.No wind94%30.12 "HgN/A
Weather by CustomWeather, © 2016

See weather overviewHow to use our weather pages